Location: Unspecified
(0.0000°N, 0.0000°E)
Time: 06:29:13
(UTC+02:00)

Resurs 01 Rocket - Visible Passes

Search period start: 03 September 2015 00:00
Search period end: 13 September 2015 00:00
Orbit: 635 x 645 km, 98.2° (Epoch: 01 September)

Date Brightness Start Highest point End Pass type
(mag) Time Alt. Az. Time Alt. Az. Time Alt. Az.
03 Sep 2.0 20:49:01 10° S 20:53:23 66° W 20:57:44 10° NNW visible
04 Sep 3.6 21:12:55 10° SSW 21:16:50 30° W 21:20:38 10° NW visible
05 Sep 4.6 21:37:45 10° SW 21:40:18 15° W 21:42:35 10° WNW visible
06 Sep 1.8 20:23:06 10° SSE 20:27:22 50° ENE 20:31:37 10° N visible
07 Sep 1.8 20:46:23 10° S 20:50:47 74° WSW 20:55:09 10° NNW visible
08 Sep 3.4 21:10:13 10° SSW 21:14:13 33° WSW 21:18:08 10° NW visible
09 Sep 4.6 21:34:52 10° SW 21:37:41 16° W 21:40:16 10° WNW visible
10 Sep 1.9 20:20:34 10° SSE 20:24:45 45° ENE 20:28:58 10° N visible
11 Sep 1.7 20:43:46 10° S 20:48:11 82° W 20:52:34 10° NNW visible
12 Sep 3.2 21:07:31 10° S 21:11:36 37° WSW 21:15:38 10° NW visible
